TimeCST,TemperatureF,Dew PointF,Humidity,Sea Level PressureIn,VisibilityMPH,Wind Direction,Wind SpeedMPH,Gust SpeedMPH,PrecipitationIn,Events,Conditions,WindDirDegrees,DateUTC
12:15 AM,33.3,25.9,74,30.12,10.0,NW,20.7,27.6,N/A,,Mostly Cloudy,320,2013-02-03 06:15:00
12:35 AM,32.0,25.3,76,30.13,10.0,NW,16.1,24.2,N/A,,Scattered Clouds,310,2013-02-03 06:35:00
12:55 AM,32.0,24.8,75,30.14,10.0,NW,15.0,24.2,N/A,,Clear,310,2013-02-03 06:55:00
1:15 AM,31.8,23.9,73,30.14,10.0,NW,15.0,19.6,N/A,,Clear,320,2013-02-03 07:15:00
1:35 AM,30.9,23.4,74,30.15,10.0,NW,15.0,20.7,N/A,,Clear,310,2013-02-03 07:35:00
1:55 AM,30.7,22.1,70,30.16,10.0,NW,16.1,23.0,N/A,,Clear,310,2013-02-03 07:55:00
2:15 AM,29.8,21.4,71,30.16,10.0,WNW,12.7,20.7,N/A,,Clear,300,2013-02-03 08:15:00
2:35 AM,28.8,21.0,73,30.16,10.0,WNW,9.2,-,N/A,,Clear,290,2013-02-03 08:35:00
2:55 AM,28.2,21.0,74,30.17,10.0,NW,10.4,-,N/A,,Clear,310,2013-02-03 08:55:00
3:15 AM,27.5,20.8,76,30.17,10.0,NW,10.4,-,N/A,,Clear,310,2013-02-03 09:15:00
3:35 AM,26.6,20.1,77,30.17,10.0,WNW,10.4,-,N/A,,Clear,300,2013-02-03 09:35:00
3:55 AM,26.4,18.9,73,30.16,10.0,NW,12.7,17.3,N/A,,Clear,310,2013-02-03 09:55:00
4:15 AM,26.2,16.5,67,30.17,10.0,NW,13.8,24.2,N/A,,Clear,310,2013-02-03 10:15:00
4:35 AM,25.5,15.8,67,30.17,10.0,NW,13.8,19.6,N/A,,Clear,310,2013-02-03 10:35:00
4:55 AM,25.2,15.4,67,30.18,10.0,NW,11.5,-,N/A,,Clear,310,2013-02-03 10:55:00
5:15 AM,24.3,16.3,72,30.18,10.0,WNW,6.9,-,N/A,,Clear,300,2013-02-03 11:15:00
5:35 AM,23.4,16.7,76,30.19,10.0,WNW,5.8,-,N/A,,Clear,290,2013-02-03 11:35:00
5:55 AM,23.4,15.6,72,30.18,10.0,NW,9.2,-,N/A,,Clear,310,2013-02-03 11:55:00
6:15 AM,23.0,15.1,72,30.17,10.0,NNW,10.4,-,N/A,,Clear,330,2013-02-03 12:15:00
6:35 AM,22.8,14.9,72,30.17,10.0,NNW,5.8,-,N/A,,Clear,330,2013-02-03 12:35:00
6:55 AM,22.1,14.9,74,30.17,10.0,NW,8.1,-,N/A,,Clear,320,2013-02-03 12:55:00
7:15 AM,21.9,14.9,74,30.17,10.0,WNW,4.6,-,N/A,,Clear,290,2013-02-03 13:15:00
7:35 AM,18.9,13.6,80,30.19,10.0,WSW,5.8,-,N/A,,Scattered Clouds,240,2013-02-03 13:35:00
7:55 AM,20.3,14.9,80,30.18,10.0,SW,4.6,-,N/A,,Mostly Cloudy,230,2013-02-03 13:55:00
8:35 AM,22.1,16.0,77,30.18,10.0,SW,4.6,-,N/A,,Scattered Clouds,230,2013-02-03 14:35:00
8:55 AM,24.6,17.6,75,30.18,10.0,SW,4.6,-,N/A,,Mostly Cloudy,220,2013-02-03 14:55:00
9:15 AM,25.5,17.6,72,30.17,10.0,SW,5.8,-,N/A,,Mostly Cloudy,230,2013-02-03 15:15:00
9:35 AM,27.3,18.5,69,30.16,10.0,SSW,6.9,-,N/A,,Scattered Clouds,210,2013-02-03 15:35:00
9:55 AM,29.1,19.0,66,30.14,10.0,SW,6.9,-,N/A,,Clear,220,2013-02-03 15:55:00
10:15 AM,30.4,19.8,65,30.13,10.0,SSW,6.9,-,N/A,,Clear,200,2013-02-03 16:15:00
10:35 AM,32.0,21.7,66,30.12,10.0,SSW,9.2,-,N/A,,Clear,200,2013-02-03 16:35:00
10:55 AM,32.7,22.8,67,30.11,10.0,SSW,11.5,-,N/A,,Clear,200,2013-02-03 16:55:00
11:15 AM,33.6,23.5,67,30.11,10.0,South,15.0,-,N/A,,Clear,190,2013-02-03 17:15:00
11:35 AM,34.3,23.9,66,30.10,10.0,SSW,13.8,-,N/A,,Clear,200,2013-02-03 17:35:00
11:55 AM,34.9,23.7,64,30.08,10.0,South,15.0,-,N/A,,Clear,180,2013-02-03 17:55:00
12:15 PM,36.0,23.5,61,30.07,10.0,South,13.8,-,N/A,,Clear,190,2013-02-03 18:15:00
12:35 PM,36.9,24.4,61,30.05,10.0,South,16.1,-,N/A,,Clear,190,2013-02-03 18:35:00
12:55 PM,38.3,23.4,55,30.03,10.0,South,18.4,-,N/A,,Clear,180,2013-02-03 18:55:00
1:15 PM,38.5,24.3,57,30.02,10.0,South,19.6,-,N/A,,Clear,190,2013-02-03 19:15:00
1:35 PM,39.2,26.1,59,30.01,10.0,SSW,18.4,-,N/A,,Clear,200,2013-02-03 19:35:00
1:55 PM,39.9,25.9,57,30.00,10.0,SSW,18.4,-,N/A,,Clear,200,2013-02-03 19:55:00
2:15 PM,40.3,26.6,58,29.98,10.0,South,19.6,25.3,N/A,,Clear,190,2013-02-03 20:15:00
2:55 PM,41.0,26.6,57,29.95,10.0,South,21.9,-,N/A,,Clear,190,2013-02-03 20:55:00
3:15 PM,41.2,27.3,58,29.94,10.0,SSW,18.4,25.3,N/A,,Clear,200,2013-02-03 21:15:00
3:35 PM,41.2,27.9,59,29.93,10.0,SSW,23.0,-,N/A,,Clear,200,2013-02-03 21:35:00
3:55 PM,41.2,28.6,61,29.93,10.0,South,17.3,-,N/A,,Clear,190,2013-02-03 21:55:00
4:15 PM,41.0,28.4,61,29.90,10.0,South,16.1,-,N/A,,Clear,190,2013-02-03 22:15:00
4:35 PM,40.3,28.0,62,29.89,10.0,South,19.6,-,N/A,,Clear,190,2013-02-03 22:35:00
4:55 PM,40.1,28.2,63,29.88,10.0,South,16.1,-,N/A,,Clear,190,2013-02-03 22:55:00
5:15 PM,39.7,28.2,63,29.87,10.0,South,12.7,-,N/A,,Clear,180,2013-02-03 23:15:00
5:35 PM,39.2,28.0,64,29.86,10.0,South,13.8,-,N/A,,Clear,180,2013-02-03 23:35:00
5:55 PM,38.8,28.4,66,29.87,10.0,South,13.8,-,N/A,,Clear,190,2013-02-03 23:55:00
6:15 PM,38.7,28.6,67,29.86,10.0,South,15.0,-,N/A,,Clear,190,2013-02-04 00:15:00
6:35 PM,38.7,28.6,67,29.86,10.0,South,15.0,-,N/A,,Clear,190,2013-02-04 00:35:00
6:55 PM,38.3,28.9,69,29.86,10.0,South,12.7,-,N/A,,Clear,190,2013-02-04 00:55:00
7:55 PM,37.4,29.1,72,29.85,10.0,South,10.4,-,N/A,,Clear,180,2013-02-04 01:55:00
8:15 PM,36.9,29.1,74,29.84,10.0,South,9.2,-,N/A,,Clear,180,2013-02-04 02:15:00
8:35 PM,36.7,29.3,75,29.83,10.0,South,11.5,-,N/A,,Clear,180,2013-02-04 02:35:00
8:55 PM,37.0,29.3,74,29.82,10.0,South,10.4,-,N/A,,Clear,170,2013-02-04 02:55:00
9:15 PM,36.9,29.3,74,29.81,10.0,South,10.4,-,N/A,,Clear,180,2013-02-04 03:15:00
9:35 PM,37.4,29.3,73,29.81,10.0,South,10.4,-,N/A,,Clear,180,2013-02-04 03:35:00
9:55 PM,37.4,29.5,73,29.80,10.0,South,11.5,-,N/A,,Clear,180,2013-02-04 03:55:00
10:15 PM,37.4,29.5,73,29.79,10.0,South,10.4,-,N/A,,Clear,180,2013-02-04 04:15:00
10:35 PM,37.6,29.7,73,29.78,10.0,South,9.2,-,N/A,,Clear,190,2013-02-04 04:35:00
10:55 PM,37.8,29.8,73,29.78,10.0,South,9.2,-,N/A,,Clear,190,2013-02-04 04:55:00
11:15 PM,37.4,29.8,74,29.77,10.0,South,8.1,-,N/A,,Clear,190,2013-02-04 05:15:00
11:35 PM,37.6,29.8,74,29.77,10.0,SSW,9.2,-,N/A,,Clear,210,2013-02-04 05:35:00
11:55 PM,37.9,29.8,73,29.76,10.0,SSW,9.2,-,N/A,,Clear,200,2013-02-04 05:55:00